Content
SEND FEEDBACK

Daily
Averages
Monthly
Summary
United States of America

ALPINE MEADOWS, CALIFORNIA


Home > North America > United States > California
Elevation: 6230 feet     Latitude: 39 12N     Longitude: 120 14W

WEATHER
 
SELECT A DAY
Number of Records: 282,497;   Date Range: 1/1/95 - 8/30/14
 
SHARE

PRINT THIS DATA

[ ← Previous Day ]
WEATHER ALMANAC - APRIL 19, 2014
[ Next Day → ]
[ °C ]   °F
Weather ElementAverageHighLow
Temperature39.8 °F62.6 °F (12:55 pm)28.4 °F (11:35 pm)
Dewpoint25.6 °F37.4 °F (8:55 am)14 °F (9:35 pm)
Humidity66.7 %100 % (12:35 am)20 % (12:55 pm)
Barometer30.12 in30.23 in (11:35 pm)30.04 in (2:35 am)
Wind Speed4 mph18.4 mph (2:50 pm)
Wind Gust24.2 mph (12:55 pm)
Weather ElementAverage
Visibility5.9 mi
Wind DirectionESE (100.2 °)

Weather ElementTotal
Precipitation---
Heating Degree Days19.5 (Base 65)
Averaged from 47 records on April 19, 2014
WEATHER CONDITIONS BREAKOUT
WIND DIRECTION BREAKOUT
WEATHER BY HOUR - APRIL 19, 2014
[ °C ]   °F
Local TimeTemperatureDewpointHumidityBarometerVisibilityWind DirectionWind SpeedGust SpeedPrecipitationEventsConditions
12:35 AM33.8 °F33.8 °F100 %30.06 in1.2 miCalmMist
12:55 AM35.6 °F35.6 °F100 %30.06 in0.8 miCalmMostly Cloudy
1:15 AM32.0 °F32.0 °F100 %30.06 in0.5 miCalmFogFog
1:35 AM33.8 °F33.8 °F100 %30.05 in3.0 miCalmScattered Clouds
1:55 AM32.0 °F32.0 °F100 %30.05 in1.8 miCalmMist
2:15 AM32.0 °F32.0 °F100 %30.05 in0.8 miCalmMostly Cloudy
2:35 AM32.0 °F32.0 °F100 %30.04 in1.8 miSE (140°)3.5 mphScattered Clouds
2:55 AM30.2 °F30.2 °F100 %30.05 in1.2 miCalmMostly Cloudy
3:15 AM32.0 °F32.0 °F100 %30.05 in0.5 miCalmFogFog
3:35 AM32.0 °F32.0 °F100 %30.05 in0.2 miCalmFogFog
3:55 AM32.0 °F32.0 °F100 %30.05 in4.0 miCalmScattered Clouds
4:15 AM32.0 °F32.0 °F100 %30.06 in0.5 miCalmFogFog
4:35 AM30.2 °F30.2 °F100 %30.06 in0.2 miSE (140°)4.6 mphFogLight Freezing Fog
4:55 AM30.2 °F30.2 °F100 %30.06 in0.5 miCalmFogLight Freezing Fog
5:15 AM32.0 °F32.0 °F100 %30.06 in0.5 miCalmFogLight Freezing Fog
5:35 AM30.2 °F30.2 °F100 %30.06 in0.2 miCalmFogLight Freezing Fog
5:55 AM32.0 °F32.0 °F100 %30.07 in0.2 miCalmFogLight Freezing Fog
6:15 AM30.2 °F30.2 °F100 %30.07 in0.2 miSSE (150°)5.8 mphFogLight Freezing Fog
6:35 AM30.2 °F30.2 °F100 %30.07 in0.2 miCalmFogLight Freezing Fog
6:55 AM30.2 °F30.2 °F100 %30.08 in0.2 miCalmFogLight Freezing Fog
7:55 AM32.0 °F32.0 °F100 %30.10 in0.2 miCalmFogFog
8:55 AM37.4 °F37.4 °F100 %30.10 in10.0 miCalmPartly Cloudy
9:50 AM53.6 °F37.4 °F54 %30.10 in10.0 miSSW (200°)10.4 mphPartly Cloudy
11:45 AM60.8 °F24.8 °F25 %30.11 in10.0 miSW (230°)9.2 mph20.7 mphClear
12:55 PM62.6 °F21.2 °F20 %30.11 in10.0 miSW (230°)15.0 mph24.2 mphPartly Cloudy
1:55 PM62.6 °F28.4 °F27 %30.11 in10.0 miSSW (200°)13.8 mph24.2 mphPartly Cloudy
2:50 PM62.6 °F26.6 °F26 %30.11 in10.0 miWSW (240°)18.4 mph24.2 mphPartly Cloudy
3:50 PM62.6 °F21.2 °F20 %30.12 in10.0 miSW (230°)10.4 mph23.0 mphPartly Cloudy
5:45 PM59.0 °F17.6 °F20 %30.13 in10.0 miWSW (240°)11.5 mphClear
6:15 PM55.4 °F17.6 °F23 %30.14 in10.0 miWSW (240°)11.5 mphClear
6:35 PM53.6 °F17.6 °F24 %30.14 in10.0 miWest (260°)11.5 mphClear
6:55 PM53.6 °F17.6 °F24 %30.14 in10.0 miWSW (240°)10.4 mphClear
7:15 PM51.8 °F17.6 °F26 %30.14 in10.0 miWSW (240°)9.2 mphClear
7:35 PM48.2 °F19.4 °F32 %30.15 in10.0 miSW (230°)6.9 mphClear
7:55 PM46.4 °F17.6 °F32 %30.16 in10.0 miSW (230°)5.8 mphClear
8:15 PM44.6 °F17.6 °F34 %30.17 in10.0 miCalmClear
8:35 PM42.8 °F17.6 °F36 %30.17 in10.0 miSE (130°)5.8 mphClear
8:55 PM39.2 °F15.8 °F39 %30.18 in10.0 miSSE (160°)6.9 mphClear
9:15 PM39.2 °F17.6 °F42 %30.19 in10.0 miWSW (250°)3.5 mphClear
9:35 PM37.4 °F14.0 °F38 %30.20 in10.0 miCalmClear
9:55 PM37.4 °F19.4 °F48 %30.20 in10.0 miCalmClear
10:15 PM32.0 °F19.4 °F60 %30.21 in10.0 miEast (100°)3.5 mphClear
10:35 PM33.8 °F17.6 °F52 %30.22 in10.0 miSW (230°)4.6 mphClear
10:55 PM32.0 °F17.6 °F55 %30.22 in10.0 miCalmClear
11:15 PM32.0 °F17.6 °F55 %30.22 in10.0 miSSE (160°)4.6 mphClear
11:35 PM28.4 °F19.4 °F69 %30.23 in10.0 miWSW (240°)3.5 mphClear
11:55 PM33.8 °F19.4 °F56 %30.23 in10.0 miCalmClear
Hourly data recorded from KTRK, located miles away from Alpine Meadows, California







STORIES FROM OUR PARTNERS